Back to catalog

QIANFAN-194

AliveCommunicationsPO
NORAD 69412·PAYLOAD·🇨🇳 China

Launched Jun 5, 2026 from Wenchang Space Launch Site

Loading…

Next Passes (next 24 hours)

TLE

FreshSource: Space-Track

Epoch: Sep 14, 2026, 13:48 UTC

1 69412U 26125M   26257.57518113 -.00000002  00000-0 -21228-4 0  9994
2 69412  88.9899 270.9138 0001966 102.5333 257.6038 13.51026036 14018

Track QIANFAN-194 in real time with AllMySat

Download on the App Store